SCP
9 8 6 4 4 5 5 5 5 5 5 6 6 7 6 5 4 3 2 2 1 1 1 1 1 1 2 2 2 2 2 3 3 2 3 3 3 3 3 3 2 2 2
6 6 5 5 5 6 6 5 5 5 5 6 6 6 4 3 3 2 2 2 2 2 1 1 1 1 2 2 2 2 2 2 2 3 3 3 3 3 3 2 2 1 1
5 5 6 6 6 6 6 5 5 5 5 5 6 4 3 2 2 2 2 2 2 2 2 1 1 2 2 2 2 2 2 2 2 2 3 3 3 2 3 2 2 2 2
5 6 6 6 6 6 5 5 5 5 5 5 4 3 2 2 2 1 1 2 2 2 2 1 1 1 2 2 2 2 2 2 2 2 2 3 2 2 2 2 2 2 2
5 6 6 6 5 5 4 4 4 4 4 3 3 2 2 2 1 1 1 1 2 2 2 1 1 1 1 1 1 2 2 2 2 2 2 2 2 2 2 2 2 2 2
5 6 6 6 5 5 4 3 3 3 3 2 2 2 1 1 1 1 1 1 2 2 2 1 1 1 1 1 1 1 1 1 2 2 2 2 2 2 2 3 3 3 2
5 6 6 6 5 4 4 3 2 2 2 2 2 2 1 1 1 0 0 1 1 2 2 2 2 2 1 1 1 1 1 1 1 1 2 2 2 2 3 3 4 3 3
5 6 6 6 5 4 4 3 3 3 3 3 3 2 2 1 1 0 0 1 1 2 2 2 3 2 2 2 2 2 2 2 1 1 1 2 2 2 3 3 4 3 3
5 5 6 5 4 4 4 4 3 3 4 4 3 3 2 2 1 0 0 1 2 2 2 3 3 2 2 1 2 2 3 3 2 1 1 1 1 1 2 3 4 3 3
4 5 5 4 3 3 3 3 3 4 4 4 3 3 2 2 2 1 1 2 2 3 3 3 2 2 1 1 1 2 3 3 3 2 2 2 2 2 2 2 3 3 3
4 4 4 3 3 3 3 3 3 3 4 4 3 3 3 3 2 1 1 1 2 3 3 2 2 1 0 0 1 1 1 2 3 3 3 3 3 3 2 2 2 3 3
4 4 3 3 3 3 3 3 4 4 4 4 4 4 4 4 3 2 1 1 1 2 2 2 1 1 0 0 0 0 0 1 2 3 3 3 3 3 2 2 2 2 2
3 3 3 3 3 3 4 5 5 5 4 4 4 4 4 4 4 2 1 0 0 1 1 1 1 0 0 0 0 0 0 1 2 2 2 2 2 1 1 1 1 1 1
3 3 3 3 3 4 5 6 6 6 5 4 4 4 4 4 4 3 2 2 1 1 1 1 0 0 0 0 0 0 0 0 1 2 2 2 2 2 1 1 1 1 1
3 3 3 3 4 5 6 7 6 5 5 4 4 3 3 3 3 3 3 2 2 1 1 1 1 1 0 0 0 0 0 0 0 1 1 2 2 2 2 1 1 1 1
4 4 4 4 5 6 7 7 6 5 4 3 3 3 2 2 2 2 2 1 1 1 1 1 1 1 1 0 0 0 0 0 0 0 1 1 2 2 2 2 2 2 1
3 3 4 5 5 5 5 6 5 4 3 3 2 1 1 1 1 1 0 0 0 0 0 1 1 1 1 1 0 0 0 0 0 0 0 1 1 2 2 2 2 2 1
2 3 4 4 4 3 4 4 4 4 3 3 2 1 0 0 0 0 0 0 0 1 1 1 1 1 1 1 1 0 0 0 0 0 0 0 1 1 1 2 2 1 1
2 2 3 4 3 2 3 3 3 3 3 3 3 2 1 0 0 0 0 0 1 1 1 1 1 0 0 0 0 0 0 0 0 0 0 0 1 1 1 1 1 1 1
2 2 3 3 3 3 3 4 4 3 3 3 4 3 1 1 1 1 0 0 1 1 1 0 0 0 0 0 0 1 0 0 0 0 0 0 1 1 1 1 1 1 1
2 2 2 3 3 4 5 6 5 3 3 4 4 2 1 1 1 1 1 0 0 0 0 0 0 0 0 0 0 0 0 0 0 0 0 0 0 1 1 1 1 1 1
3 2 2 3 4 5 5 5 4 2 2 2 2 1 1 1 1 1 1 0 0 0 0 0 0 0 0 0 0 0 0 0 0 0 0 0 0 0 1 1 1 1 1
2 2 2 3 3 3 3 2 2 1 1 1 1 1 1 1 1 0 0 0 0 0 0 0 0 0 0 0 0 0 0 0 0 0 0 0 0 0 1 1 1 1 1
2 2 2 1 1 1 1 1 1 0 0 0 0 1 1 1 1 1 1 0 0 0 0 0 0 0 0 0 0 0 0 0 0 0 0 0 0 0 1 1 1 1 1
1 1 1 1 1 0 0 0 0 0 0 0 0 0 1 1 1 1 1 1 1 0 0 0 0 0 0 0 0 0 0 0 0 0 0 0 0 0 1 1 1 2 2
1 1 0 0 0 0 0 0 0 0 0 0 0 0 0 1 1 1 1 1 1 1 1 0 0 0 0 0 0 0 0 0 0 0 0 0 0 0 0 1 1 2 2
Wind_Speed
6 6 6 6 5 4 4 4 3 3 3 2 3 3 3 3 2 2 2 2 2 2 2 3 3 3 3 3 3 3 4 4 4 4 3 2 2 4 2 3 3 4 4
6 6 6 5 5 5 4 4 4 3 3 3 3 3 3 3 3 3 3 3 3 3 3 3 3 3 3 3 3 3 3 4 4 5 3 2 2 3 2 3 3 3 3
6 7 6 6 5 5 4 4 4 4 3 3 3 3 3 3 3 3 3 3 3 3 3 3 3 3 3 2 3 3 3 3 3 4 3 2 2 2 2 3 3 3 4
6 6 6 5 5 5 4 4 4 4 4 4 3 3 3 3 3 3 3 3 3 3 3 3 3 3 3 3 3 3 3 3 3 3 3 2 2 1 2 3 3 3 3
6 6 6 5 5 4 4 4 4 4 4 3 3 3 3 3 2 2 3 3 3 3 3 3 2 1 1 2 2 2 3 3 3 3 3 2 2 2 2 3 3 3 3
6 6 5 5 5 5 4 4 4 4 3 3 3 3 2 1 2 1 3 3 3 3 3 2 2 3 2 3 3 2 3 3 3 3 3 3 3 3 3 3 3 3 3
5 5 5 5 5 5 4 4 4 3 3 3 3 3 2 1 2 1 2 4 3 2 2 3 3 1 2 3 3 4 4 4 4 4 4 3 3 3 3 4 3 4 4
5 5 5 5 4 4 4 3 3 3 3 3 2 2 2 2 1 1 3 4 3 3 3 3 3 2 2 2 3 3 4 3 4 4 4 4 4 3 4 5 4 4 4
5 4 4 4 4 4 3 3 3 3 3 2 2 2 2 2 2 1 2 3 3 3 3 3 3 3 0 2 3 3 3 3 3 4 3 3 3 3 4 4 4 4 3
3 4 4 4 4 3 3 2 2 2 3 2 2 2 2 1 3 2 2 3 2 2 2 2 2 2 1 2 4 3 3 3 3 3 3 5 5 5 6 6 4 4 3
2 2 3 3 4 4 3 3 3 3 2 2 2 2 2 1 3 3 2 2 2 2 2 2 1 3 2 3 4 4 3 4 3 3 3 3 3 2 3 3 4 4 4
2 2 2 3 3 3 3 3 3 3 3 3 2 2 2 3 2 3 2 3 4 3 2 2 1 2 2 4 3 1 3 5 3 2 2 2 2 2 2 2 3 4 4
2 2 2 3 2 3 3 3 3 3 2 2 2 2 2 2 3 5 5 4 3 3 2 2 0 2 3 4 4 4 4 3 2 2 2 2 2 2 2 2 3 4 5
2 2 2 3 3 3 2 3 2 2 2 2 2 2 2 2 2 2 3 3 4 3 2 1 3 4 4 2 3 4 3 2 2 2 2 2 2 2 3 3 3 3 4
2 2 2 2 2 2 2 1 2 1 0 2 2 2 1 1 1 1 1 1 1 1 2 2 2 2 2 1 1 1 2 2 2 2 2 3 2 3 3 2 3 4 4
2 2 2 2 2 2 3 3 2 1 2 1 1 3 0 2 3 3 1 0 0 1 3 2 2 2 1 1 1 1 2 1 2 2 3 3 3 3 3 3 3 4 3
2 2 2 2 2 3 3 3 3 3 3 3 3 2 1 2 3 3 3 3 3 3 4 2 2 2 2 2 2 2 2 2 2 3 3 3 3 3 3 3 3 3 3
3 2 2 2 2 3 3 3 3 3 3 3 4 5 5 4 4 4 5 4 3 4 3 2 2 2 2 2 2 2 2 2 2 3 3 3 3 3 3 3 3 3 3
3 2 2 2 2 3 3 3 2 3 2 2 2 4 5 6 6 5 5 4 3 3 3 3 2 2 2 2 2 2 2 2 2 3 2 3 3 3 3 3 3 3 4
3 2 3 3 3 3 3 3 3 2 2 2 2 2 3 4 4 4 4 3 3 3 2 2 2 2 2 2 2 2 2 2 2 3 3 3 3 3 4 4 3 3 4
2 2 4 4 3 3 2 2 2 2 2 2 2 1 1 3 3 3 3 3 3 3 2 2 2 2 2 2 2 2 2 2 2 3 3 3 3 3 4 4 4 4 4
2 3 3 3 2 1 2 2 2 2 2 2 2 3 3 3 2 2 2 2 2 2 2 2 2 2 2 2 2 2 3 2 3 3 3 4 4 4 4 4 4 4 5
3 3 2 2 2 2 3 3 2 2 2 2 2 2 2 2 2 2 2 2 2 2 2 2 2 2 1 2 2 3 3 3 3 4 4 4 4 4 4 4 5 5 5
3 3 2 2 2 3 3 3 2 2 3 3 2 2 2 2 3 3 3 2 2 2 2 2 2 2 2 2 3 3 2 3 4 4 5 5 5 5 5 5 5 6 5
3 3 3 2 3 3 3 3 2 2 3 3 3 3 3 3 3 3 3 2 2 2 2 2 2 3 3 4 4 3 2 2 3 5 6 5 6 5 5 6 5 6 5
3 3 2 2 3 3 3 3 3 3 3 3 3 3 3 3 3 3 3 3 3 3 3 2 3 4 4 4 3 1 0 1 2 4 6 5 5 5 5 5 6 6 6
Wind_Direction
172 168 167 169 169 174 183 186 190 195 192 201 211 205 201 202 203 208 223 214 218 226 232 235 247 263 263 250 247 252 252 251 258 270 269 249 243 264 246 247 238 236 200
169 167 167 168 164 173 178 182 185 188 196 204 211 208 204 203 206 208 223 224 226 232 233 239 246 244 249 261 258 255 258 257 256 269 280 272 249 250 252 251 249 245 243
169 171 168 172 168 174 178 180 182 187 198 208 214 216 214 213 213 217 223 233 236 238 239 243 250 248 249 252 254 257 255 249 248 258 266 275 263 263 257 243 242 248 252
168 165 160 166 169 175 182 183 185 191 202 209 215 222 221 224 222 223 229 237 242 243 242 244 248 245 248 253 243 249 261 267 253 255 259 258 255 258 268 264 255 235 249
161 163 164 166 169 173 180 182 184 193 202 207 214 221 225 221 224 236 241 240 245 251 243 238 239 226 266 266 267 254 250 258 259 259 263 263 273 275 271 275 274 266 245
165 167 166 170 172 173 178 185 188 193 199 201 212 215 212 224 69 360 275 251 244 247 253 244 225 198 196 200 233 258 269 257 266 271 268 270 273 276 280 275 276 277 277
170 171 170 175 179 179 182 184 185 189 196 205 209 204 189 118 93 235 267 261 249 244 249 246 247 207 224 227 206 214 220 223 242 267 276 288 288 285 281 277 282 290 291
169 171 172 176 178 175 178 181 181 183 193 198 196 192 189 131 108 254 264 239 245 242 241 240 246 245 250 278 250 229 229 218 225 242 263 274 279 279 268 268 269 267 264
164 168 170 171 170 173 176 178 179 182 187 192 184 197 191 150 144 206 274 235 228 238 239 239 248 243 171 282 258 243 235 230 206 215 235 252 270 267 271 265 261 262 278
171 172 167 168 169 170 169 172 173 183 182 189 173 206 210 192 149 176 260 250 238 244 229 226 224 267 171 234 249 244 240 247 245 218 216 222 229 218 221 247 263 264 274
156 167 164 169 173 164 156 160 173 182 174 191 184 204 209 204 153 163 247 272 280 270 258 245 161 135 182 228 254 255 262 272 251 239 234 235 234 228 230 238 258 268 273
129 145 154 166 177 151 154 162 175 180 180 187 193 212 197 183 155 153 185 257 302 284 288 305 65 113 217 235 243 240 260 263 253 247 252 261 267 278 276 270 268 272 272
121 137 143 156 160 156 168 172 178 189 201 195 203 212 201 185 150 155 182 211 253 271 311 26 52 207 223 211 194 212 234 247 264 264 267 278 286 284 265 248 241 246 253
144 152 156 167 167 159 189 188 185 193 209 218 227 228 206 184 169 167 183 189 202 224 256 148 181 210 232 224 192 210 233 248 264 276 283 287 279 264 255 256 254 245 251
157 162 167 170 162 166 179 191 208 184 276 264 264 253 238 207 121 89 240 229 252 279 274 243 229 216 218 210 216 231 248 246 251 258 264 266 269 269 266 267 266 260 259
183 183 187 181 168 184 179 162 86 49 117 161 294 300 78 84 119 143 162 119 154 248 252 240 244 265 276 286 273 246 242 262 270 270 264 264 266 268 269 267 264 262 265
202 204 222 209 191 199 199 193 181 166 158 168 183 197 213 137 144 172 191 209 220 218 232 240 246 265 276 278 280 284 280 272 273 267 267 270 272 275 276 276 273 268 270
210 207 226 227 224 215 208 212 214 206 185 177 173 183 186 178 181 195 203 206 206 207 233 245 246 252 265 275 277 279 289 292 278 275 279 283 282 280 277 275 281 292 283
216 221 228 229 231 224 220 220 221 223 214 198 178 162 180 182 189 203 210 232 241 230 236 245 250 254 257 258 265 272 279 284 297 291 290 298 292 287 289 286 286 289 285
217 223 238 238 235 234 230 225 222 223 227 216 207 191 170 191 200 190 207 237 255 255 250 249 250 264 267 266 264 264 267 276 282 289 304 300 293 293 291 288 287 287 286
228 215 222 231 230 234 244 244 238 233 230 220 213 161 261 231 225 222 223 234 253 261 264 267 261 255 255 255 267 275 280 282 283 288 293 291 289 287 289 288 288 288 291
238 236 237 238 243 247 248 247 248 241 235 242 231 173 185 241 240 234 243 254 264 268 263 260 264 267 275 283 288 286 286 295 301 296 295 294 288 282 279 279 283 288 288
243 239 238 242 244 236 238 240 247 249 242 238 245 230 199 242 252 246 245 253 265 271 272 257 256 262 272 281 288 284 286 293 297 297 294 290 289 283 279 281 282 282 285
254 252 250 248 247 245 246 244 244 245 246 250 251 246 228 226 246 258 262 256 254 255 260 259 257 269 280 284 283 288 318 315 301 290 288 286 284 282 282 283 281 284 284
251 246 248 257 264 260 255 251 249 254 257 253 250 250 251 242 238 245 252 258 259 254 253 257 259 256 258 267 283 311 7 336 315 310 287 280 281 281 283 283 284 285 286
258 251 251 251 257 261 263 259 253 250 251 251 248 247 249 250 249 253 253 255 260 257 256 256 256 254 257 260 278 323 51 306 317 306 289 281 278 278 283 280 284 282 285